This is the latest recevied weather packets stored in our database for station/object OK2ILA-6. If no packets are shown the sender has not sent any weather packets the latest 10 day(s).
| Time | Temp. | Humidity | Pressure | Rain* | Wind** | Luminosity | Snow |
|---|---|---|---|---|---|---|---|
| 1777620003 | 14.44° C | 56% | 1027.1 hPa | - | - | - | - |
| 1777619403 | 13.89° C | 56% | 1027 hPa | - | - | - | - |
| 1777618803 | 13.33° C | 59% | 1026.9 hPa | - | - | - | - |
| 1777618202 | 13.33° C | 62% | 1027 hPa | - | - | - | - |
| 1777617603 | 13.33° C | 62% | 1026.8 hPa | - | - | - | - |
| 1777617003 | 12.78° C | 60% | 1027 hPa | - | - | - | - |
| 1777616403 | 12.22° C | 62% | 1027 hPa | - | - | - | - |
| 1777615803 | 12.22° C | 64% | 1026.8 hPa | - | - | - | - |
| 1777615202 | 12.22° C | 64% | 1026.8 hPa | - | - | - | - |
| 1777614603 | 11.67° C | 65% | 1026.8 hPa | - | - | - | - |
| 1777614003 | 11.11° C | 64% | 1026.8 hPa | - | - | - | - |
| 1777613403 | 11.11° C | 66% | 1026.7 hPa | - | - | - | - |
| 1777612803 | 10° C | 68% | 1026.8 hPa | - | - | - | - |
| 1777612202 | 10° C | 70% | 1026.6 hPa | - | - | - | - |
| 1777611603 | 8.89° C | 72% | 1026.6 hPa | - | - | - | - |
| 1777611003 | 8.89° C | 72% | 1026.6 hPa | - | - | - | - |
| 1777610403 | 8.33° C | 72% | 1026.7 hPa | - | - | - | - |
| 1777609803 | 7.78° C | 73% | 1026.7 hPa | - | - | - | - |
| 1777609203 | 7.78° C | 74% | 1026.7 hPa | - | - | - | - |
| 1777608603 | 7.78° C | 74% | 1026.8 hPa | - | - | - | - |
| 1777608003 | 7.22° C | 74% | 1026.8 hPa | - | - | - | - |
| 1777607403 | 7.22° C | 74% | 1026.8 hPa | - | - | - | - |
| 1777606803 | 6.67° C | 73% | 1026.8 hPa | - | - | - | - |
| 1777606203 | 7.22° C | 73% | 1026.6 hPa | - | - | - | - |
| 1777605603 | 7.22° C | 72% | 1026.8 hPa | - | - | - | - |
* Rain since midnight (hover to see other rain measurements)
** Current wind speed in m/s (hover to see current wind gust speed)